[[{"header":{"parameterUnit":"m.s-1","parameterCategory":2,"la1":30.2992,"la2":30.254,"lo1":-89.0895,"lo2":-89.0443,"dy":0.0025,"dx":0.0025,"nx":19,"ny":19,"refTime":"2026-03-30T09:00:00:Z","depth":"0","parameterNumber":2,"parameterNumberName":"U-component_of_CURRENTS"},"data":[0,0,0,0.2057,0.2057,0.2064,0.2064,0.2065,0.2065,0,0,0,0,0,0,0,0,0,0,0,0.2049,0.2049,0.2057,0.2057,0.2064,0.2064,0.2065,0.2065,0,0,0,0,0,0,0,0,0,0,0,0.2048,0.2049,0.2049,0.2058,0.2064,0.2064,0.2065,0.2058,0,0,0,0,0,0,0,0,0,0,0.205,0.2046,0.2049,0.2049,0.2058,0.2064,0.2064,0.2057,0.2058,0.2065,0,0.2075,0,0.2081,0.2067,0.2067,0,0,0,0.204,0.2045,0.2056,0.2049,0.2058,0.2064,0.2056,0.2058,0.2059,0.2066,0.2075,0.2075,0.2081,0.2067,0.2067,0.2119,0.2119,0,0,0.204,0.2038,0.2055,0.2057,0.2072,0.2056,0.2057,0.2058,0.2059,0.2075,0.2075,0.2081,0.2067,0.2067,0.2119,0.2119,0,0,0,0.205,0.2038,0.2049,0.2057,0.2065,0.2057,0.2057,0.2058,0.2065,0.2075,0.2081,0.2067,0.2067,0.2118,0.2119,0.2144,0,0,0,0.2049,0.2046,0.2049,0.2046,0.2065,0.2062,0.2057,0.2064,0.2065,0.2081,0.2067,0.2067,0.2118,0.2118,0.2142,0.2162,0,0,0,0.2046,0.2045,0.2051,0.2046,0.2059,0.2062,0.2068,0.2064,0.2069,0.2067,0.2067,0.2117,0.2118,0.2141,0.2159,0.2218,0,0,0,0.2036,0.2045,0.2051,0.2061,0.2059,0.2074,0.2068,0.2071,0.2069,0.2067,0.2118,0.2119,0.214,0.2158,0.2215,0.2234,0.2246,0,0,0.204,0.2045,0.205,0.2057,0.2065,0.2071,0.209,0.2085,0.2089,0.2113,0.2114,0.2143,0.2159,0.2217,0.229,0.23,0,0,0,0.2047,0.2044,0.205,0.2055,0.2074,0.2095,0.2096,0.2114,0.2138,0.2097,0.2156,0.2166,0.2201,0.2208,0.2216,0.2214,0.2123,0.2123,0.2123,0.2018,0.2031,0.2033,0.2051,0.2072,0.2108,0.2139,0.2167,0.2158,0.2184,0.2195,0.2269,0.2275,0.2282,0.2279,0.2201,0.2201,0.2201,0.2201,0.1995,0.198,0.2016,0.2022,0.2065,0.2092,0.2177,0.2196,0.2273,0.2241,0.2275,0.2244,0.2293,0.2286,0.2203,0.2203,0.2202,0.2202,0.2202,0.1942,0.1938,0.1957,0.1974,0.2017,0.2081,0.2164,0.2235,0.2299,0.2339,0.2363,0.2363,0.2351,0.2359,0.2359,0.2359,0.236,0.236,0.236,0.187,0.1893,0.1887,0.1918,0.1941,0.2015,0.2159,0.2248,0.2372,0.2408,0.2408,0.2382,0.2318,0.2305,0.2365,0.2364,0.2364,0.2363,0.2363,0.1776,0.1801,0.1792,0.1807,0.1865,0.1905,0.2083,0.2285,0.2402,0.2471,0.2493,0.2454,0.2456,0.2449,0.244,0.2532,0.2532,0.2532,0.2532,0.1708,0.1719,0.1706,0.1718,0.1762,0.1851,0.1965,0.2162,0.2411,0.25,0.2561,0.2514,0.2507,0.2509,0.25,0.2491,0.2594,0.2594,0.2594,0.1643,0.1658,0.162,0.1645,0.1699,0.1779,0.1835,0.198,0.2363,0.2595,0.2558,0.2555,0.2481,0.2471,0.2464,0.2452,0.2434,0,0]},{"header":{"parameterUnit":"m.s-1","parameterCategory":2,"la1":30.2992,"la2":30.254,"lo1":-89.0895,"lo2":-89.0443,"dy":0.0025,"dx":0.0025,"nx":19,"ny":19,"refTime":"2026-03-30T09:00:00:Z","depth":"0","parameterNumber":3,"parameterNumberName":"V-component_of_CURRENTS"},"data":[0,0,0,-0.0196,-0.0196,-0.0234,-0.0235,-0.0288,-0.0288,0,0,0,0,0,0,0,0,0,0,0,-0.018,-0.0181,-0.0196,-0.0196,-0.0234,-0.0235,-0.0288,-0.0288,0,0,0,0,0,0,0,0,0,0,0,-0.018,-0.0181,-0.0181,-0.0197,-0.0234,-0.0235,-0.0288,-0.026,0,0,0,0,0,0,0,0,0,0,-0.0223,-0.0202,-0.018,-0.0181,-0.0197,-0.0234,-0.0235,-0.0258,-0.0261,-0.027,0,-0.027,0,-0.0279,-0.0291,-0.0292,0,0,0,-0.0203,-0.0199,-0.0212,-0.0181,-0.0197,-0.0234,-0.0219,-0.026,-0.0264,-0.0274,-0.0271,-0.0273,-0.0279,-0.0292,-0.0292,-0.0294,-0.0294,0,0,-0.0201,-0.0187,-0.021,-0.0214,-0.0199,-0.0218,-0.022,-0.0262,-0.0261,-0.0271,-0.0274,-0.028,-0.0292,-0.0292,-0.0295,-0.0294,0,0,0,-0.0191,-0.0186,-0.0198,-0.0212,-0.0217,-0.0219,-0.0222,-0.0259,-0.0264,-0.0275,-0.0281,-0.0292,-0.0293,-0.0295,-0.0294,-0.0218,0,0,0,-0.019,-0.0179,-0.0196,-0.0189,-0.0216,-0.0237,-0.0217,-0.0261,-0.0266,-0.0281,-0.0292,-0.0293,-0.0295,-0.0295,-0.022,-0.0173,0,0,0,-0.018,-0.0178,-0.0181,-0.0188,-0.0202,-0.0237,-0.0244,-0.0262,-0.0269,-0.0292,-0.0293,-0.0296,-0.0295,-0.0223,-0.0178,-0.0138,0,0,0,-0.0168,-0.0155,-0.018,-0.0164,-0.0201,-0.0195,-0.0244,-0.025,-0.0264,-0.0293,-0.0295,-0.0294,-0.0224,-0.0181,-0.0141,-0.004,-0.0017,0,0,-0.0142,-0.0151,-0.0141,-0.0164,-0.0137,-0.0191,-0.0168,-0.0213,-0.0257,-0.0284,-0.0284,-0.0219,-0.0178,-0.0139,0.0004,0.0026,0,0,0,-0.0127,-0.0114,-0.0111,-0.0103,-0.0114,-0.0111,-0.016,-0.0183,-0.0212,-0.0261,-0.0226,-0.0202,-0.018,-0.0125,-0.0108,-0.0181,-0.0291,-0.0291,-0.0291,-0.0062,-0.0068,-0.0035,-0.0038,-0.0037,-0.0059,-0.0066,-0.0108,-0.0161,-0.0164,-0.0144,-0.0067,-0.0008,0.0006,-0.0071,-0.0158,-0.0158,-0.0158,-0.0158,0.0003,0.0028,0.0026,0.0051,0.0048,0.0057,0.0021,-0.0015,-0.0023,-0.0082,-0.0065,-0.0053,0.003,-0.0059,-0.0153,-0.0154,-0.0154,-0.0155,-0.0155,0.006,0.0071,0.008,0.0118,0.0147,0.0127,0.0174,0.0123,0.0056,0.0076,0.0118,0.0118,0.0044,0.0081,0.0082,0.0082,0.0082,0.0083,0.0083,0.0111,0.0123,0.0161,0.0186,0.0218,0.0259,0.026,0.0273,0.0266,0.0223,0.0223,0.0073,0.0006,0.0001,0.0089,0.0088,0.0087,0.0087,0.0086,0.0179,0.0174,0.0237,0.0273,0.0348,0.0444,0.0441,0.0509,0.049,0.0514,0.0298,0.0291,0.0277,0.0264,0.0265,0.0416,0.0416,0.0416,0.0416,0.0224,0.0224,0.0309,0.0378,0.0469,0.0532,0.0707,0.0745,0.0603,0.0505,0.0389,0.0343,0.0333,0.0317,0.0302,0.03,0.0457,0.0456,0.0456,0.0272,0.029,0.0359,0.0413,0.0517,0.0648,0.0834,0.095,0.0698,0.0443,0.0267,0.0266,0.0177,0.0167,0.0118,0.0103,0.0092,0,0]}],[{"header":{"parameterUnit":"m.s-1","parameterCategory":2,"la1":30.2992,"la2":30.254,"lo1":-89.0895,"lo2":-89.0443,"dy":0.0025,"dx":0.0025,"nx":19,"ny":19,"refTime":"2026-03-30T09:00:00:Z","depth":"2","parameterNumber":2,"parameterNumberName":"U-component_of_CURRENTS"},"data":[0,0,0,0.2124,0.2125,0.2134,0.2133,0.2141,0.2141,0,0,0,0,0,0,0,0,0,0,0,0.2117,0.2117,0.2124,0.2125,0.2134,0.2133,0.2141,0.2141,0,0,0,0,0,0,0,0,0,0,0,0.2117,0.2117,0.2117,0.2125,0.2134,0.2133,0.2141,0.2132,0,0,0,0,0,0,0,0,0,0,0.2122,0.2116,0.2117,0.2117,0.2125,0.2134,0.2133,0.2131,0.2132,0.2141,0,0.2152,0,0.2157,0.2143,0.2143,0,0,0,0.2109,0.2115,0.2127,0.2117,0.2126,0.2134,0.2125,0.2132,0.2133,0.2143,0.2152,0.2152,0.2157,0.2144,0.2144,0.2202,0.2203,0,0,0.2109,0.2106,0.2126,0.2128,0.214,0.2125,0.2126,0.2132,0.2133,0.2152,0.2153,0.2157,0.2144,0.2144,0.2202,0.2203,0,0,0,0.2118,0.2106,0.2117,0.2128,0.2135,0.2126,0.2126,0.2132,0.214,0.2153,0.2157,0.2144,0.2144,0.2202,0.2202,0.2224,0,0,0,0.2117,0.2113,0.2118,0.2114,0.2136,0.2134,0.2126,0.2138,0.214,0.2157,0.2144,0.2145,0.2201,0.2202,0.2222,0.2239,0,0,0,0.2114,0.2112,0.2119,0.2115,0.2127,0.2134,0.214,0.2138,0.2143,0.2143,0.2145,0.2201,0.2202,0.2221,0.2236,0.2295,0,0,0,0.2102,0.2112,0.2119,0.2128,0.2128,0.2144,0.214,0.2144,0.2144,0.2144,0.2201,0.2202,0.222,0.2235,0.2292,0.2263,0.2271,0,0,0.2107,0.2113,0.2117,0.2124,0.2131,0.214,0.2161,0.2159,0.2166,0.2195,0.2196,0.2222,0.2236,0.2294,0.2322,0.2328,0,0,0,0.2113,0.211,0.2116,0.2121,0.2141,0.2163,0.2168,0.2188,0.2216,0.2175,0.2237,0.2246,0.2282,0.226,0.2265,0.2207,0.2207,0.2207,0.2207,0.2084,0.2096,0.2098,0.2116,0.2138,0.2177,0.2209,0.2241,0.2236,0.2263,0.2274,0.2347,0.2323,0.2327,0.2282,0.2282,0.2282,0.2282,0.2282,0.2059,0.2045,0.208,0.2086,0.213,0.2158,0.2247,0.2269,0.2348,0.2319,0.2353,0.2296,0.2334,0.2284,0.2284,0.2284,0.2283,0.2283,0.2283,0.2007,0.2003,0.2021,0.2038,0.208,0.2146,0.223,0.2304,0.237,0.241,0.2405,0.2404,0.2369,0.2431,0.2431,0.2432,0.2432,0.2432,0.2432,0.1935,0.1957,0.1951,0.1982,0.2005,0.2078,0.2223,0.2311,0.2417,0.2441,0.2441,0.2398,0.2393,0.2379,0.2438,0.2437,0.2436,0.2435,0.2435,0.1841,0.1866,0.1856,0.1871,0.1929,0.1961,0.214,0.2317,0.243,0.2482,0.247,0.2467,0.2466,0.246,0.2449,0.2522,0.2522,0.2522,0.2522,0.1773,0.1784,0.177,0.1781,0.1825,0.1905,0.1984,0.2109,0.2294,0.2328,0.2335,0.2263,0.2265,0.2248,0.2247,0.2229,0.2245,0.2244,0.2243,0.1708,0.1722,0.1685,0.1709,0.1762,0.1825,0.1824,0.1815,0.1989,0.2225,0.2213,0.2518,0.2431,0.2426,0.2414,0.2407,0.2384,0,0]},{"header":{"parameterUnit":"m.s-1","parameterCategory":2,"la1":30.2992,"la2":30.254,"lo1":-89.0895,"lo2":-89.0443,"dy":0.0025,"dx":0.0025,"nx":19,"ny":19,"refTime":"2026-03-30T09:00:00:Z","depth":"2","parameterNumber":3,"parameterNumberName":"V-component_of_CURRENTS"},"data":[0,0,0,-0.0167,-0.0168,-0.0206,-0.0206,-0.0257,-0.0258,0,0,0,0,0,0,0,0,0,0,0,-0.0152,-0.0152,-0.0167,-0.0168,-0.0206,-0.0206,-0.0257,-0.0258,0,0,0,0,0,0,0,0,0,0,0,-0.0152,-0.0152,-0.0152,-0.0168,-0.0206,-0.0206,-0.0257,-0.0229,0,0,0,0,0,0,0,0,0,0,-0.0192,-0.0173,-0.0152,-0.0152,-0.0168,-0.0206,-0.0206,-0.0228,-0.0231,-0.0239,0,-0.024,0,-0.0249,-0.0261,-0.0261,0,0,0,-0.0173,-0.0171,-0.0183,-0.0152,-0.0168,-0.0206,-0.019,-0.023,-0.0233,-0.0243,-0.0241,-0.0243,-0.025,-0.0261,-0.0261,-0.0263,-0.0263,0,0,-0.0171,-0.0159,-0.018,-0.0185,-0.0172,-0.0189,-0.0191,-0.0232,-0.0231,-0.0241,-0.0244,-0.0251,-0.0261,-0.0262,-0.0264,-0.0263,0,0,0,-0.0161,-0.0157,-0.0169,-0.0183,-0.0189,-0.019,-0.0193,-0.023,-0.0234,-0.0245,-0.0251,-0.0262,-0.0262,-0.0264,-0.0263,-0.019,0,0,0,-0.016,-0.0151,-0.0168,-0.0161,-0.0188,-0.0209,-0.019,-0.0231,-0.0236,-0.0251,-0.0262,-0.0263,-0.0264,-0.0264,-0.0192,-0.0146,0,0,0,-0.0151,-0.015,-0.0153,-0.016,-0.0175,-0.0208,-0.0215,-0.0232,-0.024,-0.0261,-0.0263,-0.0264,-0.0264,-0.0195,-0.0151,-0.0111,0,0,0,-0.014,-0.0128,-0.0153,-0.0138,-0.0174,-0.0167,-0.0215,-0.0221,-0.0234,-0.0262,-0.0264,-0.0263,-0.0195,-0.0154,-0.0114,-0.0023,-0.0001,0,0,-0.0116,-0.0125,-0.0114,-0.0137,-0.0109,-0.0163,-0.0139,-0.0184,-0.0227,-0.0253,-0.0253,-0.0191,-0.0151,-0.0111,0.002,0.0041,0,0,0,-0.01,-0.0089,-0.0085,-0.0077,-0.0087,-0.0084,-0.0132,-0.0155,-0.0183,-0.0231,-0.0197,-0.0174,-0.0151,-0.0103,-0.0087,-0.026,-0.026,-0.026,-0.026,-0.004,-0.0044,-0.0012,-0.0014,-0.0011,-0.0033,-0.0038,-0.008,-0.0133,-0.0136,-0.0118,-0.0042,0.001,0.0023,-0.0132,-0.0132,-0.0131,-0.0131,-0.0131,0.0022,0.0046,0.0046,0.0071,0.007,0.0079,0.0046,0.0011,0.0003,-0.0057,-0.0039,-0.0033,0.0046,-0.0125,-0.0126,-0.0127,-0.0128,-0.0128,-0.0129,0.0075,0.0086,0.0096,0.0134,0.0163,0.0145,0.0193,0.0144,0.0079,0.0099,0.0134,0.0133,0.0012,0.0103,0.0103,0.0103,0.0104,0.0104,0.0104,0.0122,0.0135,0.0171,0.0198,0.0229,0.0271,0.0275,0.029,0.0279,0.0234,0.0234,0.0037,0.0029,0.0025,0.011,0.0109,0.0108,0.0108,0.0107,0.0186,0.0182,0.0243,0.0279,0.0354,0.0445,0.0449,0.0514,0.0496,0.0516,0.0306,0.0299,0.0285,0.0272,0.0273,0.0418,0.0418,0.0418,0.0418,0.0228,0.0229,0.0312,0.038,0.0472,0.0529,0.0675,0.0679,0.0598,0.051,0.0506,0.0469,0.0455,0.0447,0.0429,0.043,0.0617,0.0617,0.0617,0.0275,0.0292,0.036,0.0414,0.0518,0.0636,0.0766,0.0756,0.0627,0.0618,0.0476,0.0444,0.0375,0.0359,0.0329,0.0308,0.0303,0,0]}],[{"header":{"parameterUnit":"m.s-1","parameterCategory":2,"la1":30.2992,"la2":30.254,"lo1":-89.0895,"lo2":-89.0443,"dy":0.0025,"dx":0.0025,"nx":19,"ny":19,"refTime":"2026-03-30T09:00:00:Z","depth":"4","parameterNumber":2,"parameterNumberName":"U-component_of_CURRENTS"},"data":[0,0,0,0.1408,0.1411,0.1555,0.1556,0.1674,0.1674,0,0,0,0,0,0,0,0,0,0,0,0.1363,0.1364,0.1408,0.1411,0.1555,0.1556,0.1673,0.1674,0,0,0,0,0,0,0,0,0,0,0,0.1363,0.1364,0.1365,0.1412,0.1555,0.1556,0.1673,0.1582,0,0,0,0,0,0,0,0,0,0,0.1451,0.1423,0.1364,0.1365,0.1412,0.1555,0.1556,0.1578,0.1588,0.1588,0,0.1617,0,0.1644,0.168,0.1681,0,0,0,0.1416,0.1416,0.1448,0.1366,0.1414,0.1554,0.1491,0.1584,0.1595,0.16,0.1619,0.1624,0.1645,0.1681,0.1681,0.1777,0.1777,0,0,0.1408,0.1395,0.1441,0.1454,0.1459,0.1487,0.1496,0.1591,0.1608,0.162,0.1627,0.1647,0.1681,0.1682,0.1776,0.1777,0,0,0,0.1382,0.1389,0.142,0.1449,0.1478,0.1491,0.1501,0.1604,0.1613,0.1629,0.1649,0.1682,0.1683,0.1776,0.1777,0.1797,0,0,0,0.1377,0.1373,0.1417,0.1411,0.1477,0.1553,0.1512,0.1607,0.1618,0.1648,0.1682,0.1684,0.1776,0.1776,0.1796,0.1805,0,0,0,0.1355,0.1371,0.1389,0.141,0.1469,0.1552,0.1568,0.161,0.163,0.1681,0.1684,0.1775,0.1776,0.1794,0.1803,0.1826,0,0,0,0.1334,0.1361,0.1389,0.1433,0.1468,0.1545,0.1568,0.1639,0.1685,0.1682,0.1776,0.1776,0.1794,0.1801,0.1825,0.1616,0,0,0,0.1348,0.1363,0.1388,0.1415,0.1481,0.1525,0.16,0.1671,0.1696,0.1739,0.1742,0.1796,0.1803,0.1826,0.1671,0,0,0,0,0.1379,0.1398,0.1423,0.1475,0.1532,0.1595,0.1663,0.1694,0.1764,0.1727,0.1809,0.1813,0.1826,0.1701,0.1781,0.1781,0.1781,0.1781,0.178,0.1364,0.1404,0.1452,0.1511,0.1564,0.1652,0.1705,0.176,0.1781,0.1817,0.1839,0.1883,0.1752,0.1849,0.1849,0.1849,0.1849,0.1849,0.185,0.1376,0.1399,0.1469,0.1531,0.16,0.167,0.176,0.1795,0.1871,0.187,0.1882,0.1743,0.1852,0.1851,0.1851,0.1851,0.1851,0.185,0.185,0.1349,0.1364,0.1426,0.1514,0.16,0.1689,0.1755,0.1833,0.1892,0.192,0.1795,0.1903,0.1891,0.1935,0.1935,0.1935,0.1935,0.1935,0.1936,0.1285,0.1345,0.1395,0.1493,0.1549,0.1636,0.1761,0.1801,0.1878,0.1801,0.1936,0.1912,0.1909,0.1896,0.1938,0.1938,0.1937,0.1937,0.1937,0.1236,0.1273,0.133,0.1386,0.1492,0.1527,0.1673,0.1698,0.1724,0.1701,0.1732,0.1742,0.1716,0.1718,0.1697,0.1682,0.1679,0.1677,0,0.1188,0.1213,0.1275,0.1323,0.1357,0.1453,0.1433,0.1501,0.157,0.152,0.1736,0.177,0.1775,0.1746,0.1744,0.1718,0,0,0,0.1157,0.1182,0.1197,0.1258,0.1283,0.1312,0.1414,0.1388,0.1559,0.1525,0.1613,0.163,0.1821,0.1945,0.1929,0.1926,0.1904,0,0]},{"header":{"parameterUnit":"m.s-1","parameterCategory":2,"la1":30.2992,"la2":30.254,"lo1":-89.0895,"lo2":-89.0443,"dy":0.0025,"dx":0.0025,"nx":19,"ny":19,"refTime":"2026-03-30T09:00:00:Z","depth":"4","parameterNumber":3,"parameterNumberName":"V-component_of_CURRENTS"},"data":[0,0,0,0.0099,0.0099,0.0062,0.0061,0.0017,0.0017,0,0,0,0,0,0,0,0,0,0,0,0.0112,0.0112,0.0099,0.0099,0.0062,0.0061,0.0017,0.0017,0,0,0,0,0,0,0,0,0,0,0,0.0112,0.0112,0.0112,0.0099,0.0062,0.0061,0.0017,0.0042,0,0,0,0,0,0,0,0,0,0,0.0077,0.0089,0.0112,0.0112,0.0099,0.0062,0.0061,0.0043,0.0041,0.0038,0,0.0038,0,0.0031,0.0015,0.0015,0,0,0,0.0089,0.0092,0.0086,0.0112,0.0098,0.0062,0.0076,0.0042,0.0039,0.0035,0.0038,0.0036,0.003,0.0015,0.0014,0.0035,0.0035,0,0,0.0091,0.0099,0.0088,0.0085,0.0097,0.0077,0.0075,0.004,0.0038,0.0038,0.0035,0.0029,0.0014,0.0014,0.0035,0.0035,0,0,0,0.0104,0.01,0.0095,0.0086,0.0082,0.0076,0.0073,0.0039,0.0039,0.0034,0.0029,0.0014,0.0014,0.0034,0.0035,0.0075,0,0,0,0.0104,0.0108,0.0097,0.01,0.0083,0.0059,0.0074,0.0041,0.0037,0.0029,0.0014,0.0013,0.0034,0.0034,0.0072,0.0103,0,0,0,0.0113,0.0109,0.0108,0.01,0.0089,0.0059,0.0056,0.004,0.0034,0.0015,0.0013,0.0033,0.0034,0.007,0.0099,0.0135,0,0,0,0.0116,0.0123,0.0109,0.0112,0.0089,0.0086,0.0056,0.0043,0.0029,0.0014,0.0034,0.0035,0.007,0.0097,0.0133,0.0123,0,0,0,0.0129,0.0125,0.0127,0.0113,0.0117,0.009,0.0101,0.0066,0.0046,0.0042,0.0043,0.0073,0.0099,0.0134,0.0186,0,0,0,0,0.0133,0.0135,0.0134,0.013,0.0123,0.0129,0.0096,0.0095,0.0089,0.0045,0.0084,0.0099,0.012,0.0108,0.004,0.004,0.004,0.004,0.0039,0.0159,0.0152,0.0161,0.0155,0.0157,0.0153,0.0162,0.0158,0.0122,0.0135,0.0139,0.0205,0.0195,0.014,0.014,0.0141,0.0141,0.0141,0.0141,0.0179,0.0183,0.0184,0.019,0.0201,0.0211,0.0226,0.0214,0.0237,0.0197,0.0215,0.016,0.0145,0.0144,0.0144,0.0143,0.0143,0.0143,0.0142,0.0194,0.0197,0.02,0.0218,0.0247,0.0253,0.0309,0.0301,0.0283,0.0302,0.0283,0.0243,0.0231,0.0302,0.0303,0.0303,0.0303,0.0303,0.0304,0.0205,0.0211,0.0231,0.025,0.0277,0.0322,0.0357,0.0377,0.0357,0.0344,0.0314,0.026,0.0255,0.0241,0.0308,0.0307,0.0307,0.0306,0.0306,0.0212,0.0223,0.0255,0.0284,0.035,0.039,0.0423,0.0438,0.0461,0.045,0.0368,0.0363,0.0352,0.0345,0.0333,0.043,0.043,0.043,0,0.0224,0.0227,0.028,0.0335,0.0404,0.0436,0.0482,0.0494,0.0458,0.0445,0.0456,0.0363,0.0358,0.0343,0.0337,0.0324,0,0,0,0.0231,0.0249,0.029,0.0343,0.0423,0.0469,0.0496,0.049,0.046,0.0469,0.0434,0.0433,0.0371,0.0322,0.0295,0.0288,0.0265,0,0]}]]